This demonstration page uses our WeatherBlox Daily Observations layout. Learn more.

Left ArrowRight Arrow

34.02893, -84.19858

Hourly Observations for April 29, 2019

Temp ( °F °C ) Dew Point ( °F °C ) Humidity (%) Winds ( mph kmh ) Pressure ( in mb ) Visibility ( mi km ) Precip ( " mm )
12:53 am 00:53 Clear 62 16.7 59 15 90 90 Calm 30.07 1018 9 14 0.00 0.00
1:53 am 01:53 Clear 60 15.6 59 15 96 96 Calm 30.08 1019 8 13 0.00 0.00
2:53 am 02:53 Clear with Mist and Fog 59 15 58 14.4 96 96 Calm 30.07 1018 6 10 0.00 0.00
3:53 am 03:53 Clear with Mist and Fog 59 15 58 14.4 96 96 Calm 30.08 1019 6 10 0.00 0.00
4:53 am 04:53 Clear with Mist and Fog 58 14.4 57 13.9 97 97 Calm 30.08 1019 4 6 0.00 0.00
5:53 am 05:53 Clear with Mist and Fog 58 14.4 58 14.4 100 100 Calm 30.09 1019 4 6 0.00 0.00
6:53 am 06:53 Mostly Cloudy with Mist and Fog 59 15 58 14.4 96 96 Calm 30.11 1020 4 6 0.00 0.00
7:53 am 07:53 Mostly Cloudy 62 16.7 60 15.6 93 93 Calm 30.15 1021 7 11 0.00 0.00
8:53 am 08:53 Sunny 67 19.4 62 16.7 84 84 Calm 30.15 1021 7 11 0.00 0.00
9:53 am 09:53 Sunny 69 20.6 57 13.9 66 66 VRB 5 7 30.17 1022 10 16 0.00 0.00
10:53 am 10:53 Sunny 71 21.7 57 13.9 61 61 VRB 3 6 30.19 1022 10 16 0.00 0.00
11:53 am 11:53 Sunny 75 23.9 60 15.6 60 60 VRB 3 6 30.19 1022 10 16 0.00 0.00
1:53 pm 13:53 Mostly Sunny 79 26.1 60 15.6 52 52 VRB 3 6 30.15 1021 10 16 0.00 0.00
2:53 pm 14:53 Mostly Sunny 81 27.2 61 16.1 51 51 SSE 9 15 30.14 1021 10 16 0.00 0.00
3:53 pm 15:53 Sunny 82 27.8 58 14.4 44 44 SSE 9 15 30.13 1020 10 16 0.00 0.00
4:53 pm 16:53 Sunny 83 28.3 58 14.4 43 43 SSW 13 20 30.11 1020 10 16 0.00 0.00
5:53 pm 17:53 Sunny 82 27.8 58 14.4 44 44 SSE 12 19 30.12 1020 10 16 0.00 0.00
6:53 pm 18:53 Sunny 80 26.7 58 14.4 47 47 S 8 13 30.13 1020 10 16 0.00 0.00
7:53 pm 19:53 Sunny 78 25.6 59 15 52 52 SSE 5 7 30.13 1020 10 16 0.00 0.00
9:53 pm 21:53 Clear 72 22.2 59 15 64 64 SSE 3 6 30.16 1021 10 16 0.00 0.00
10:53 pm 22:53 Clear 68 20 59 15 73 73 Calm 30.17 1022 10 16 0.00 0.00
11:53 pm 23:53 Clear 66 18.9 58 14.4 75 75 Calm 30.17 1022 10 16 0.00 0.00

Powered by AerisWeather